CAPE
83 164 534 722 1012 1620 2407 2334 2556 2709 2634 2655 2562 2303 2154 2154 2207 2095 1990 1929 1967 1907 1842 1543 1439 1538 1768 1612 1295 1147 1125 1080 785 990 1303 1378 1612 1829 1641 1168 1564 1159 1521
68 162 662 818 1811 1789 2071 2236 2224 2315 2169 2197 2342 2312 2016 2142 2247 2006 1937 1936 1827 1767 1814 1564 1354 1528 1693 1789 1687 1417 1142 1160 639 353 1059 1196 1491 1669 1579 1059 1641 1664 1123
59 213 352 1376 1835 1676 1951 2226 1994 1845 1752 1837 2004 2055 2122 1940 1942 1881 1787 1772 1774 1796 1781 1675 1673 1577 1561 1554 1442 1406 1371 1256 676 412 1117 616 972 1451 1349 1264 1603 1484 1541
143 292 354 1711 2160 1786 1917 2231 2218 1725 1746 1812 2015 2176 2065 1994 1891 1711 1615 1562 1557 1531 1518 1591 1569 1648 1587 1482 1404 1377 1237 1136 1013 519 713 1025 1178 1747 1432 1065 1484 1365 1390
135 195 519 1855 2384 1660 1754 1974 2218 2279 1905 2214 2257 2053 1995 1887 1762 1633 1587 1544 1625 1683 1601 1441 1353 1377 1420 1393 1420 1369 1245 1323 1314 578 380 940 1322 1516 1115 641 996 1287 1546
210 373 1141 1706 1653 1620 1857 1957 2132 1924 1790 1732 1967 1985 1858 1773 1678 1649 1671 1711 1758 1986 1702 1600 1620 1526 1377 1363 1388 1333 1526 1825 1838 593 321 1335 1057 1647 982 1660 1566 1715 1653
295 484 1020 2074 2015 1783 1772 1943 1896 1913 1872 1788 1737 1880 1821 1688 1626 1602 1629 1757 1869 1904 1648 1386 1410 1453 1498 1470 1413 1708 1604 1648 809 600 720 948 793 1866 1475 1508 1381 1483 1693
402 658 945 1627 1842 1674 1665 1675 1690 1807 1886 1899 1725 1804 1860 1631 1574 1490 1485 1596 1779 1741 1667 1408 1283 1312 1426 1488 1371 1727 1731 1305 875 807 693 757 1345 1734 1540 1327 882 1061 1686
673 745 856 864 1169 1457 1568 1613 1640 1747 1874 1963 1933 1832 1866 1728 1510 1449 1466 1540 1537 1543 1621 1653 1695 1463 1464 1681 1494 1860 1492 1096 567 886 745 970 1908 2062 1607 1131 1311 565 1540
791 831 973 947 921 996 1183 1532 1517 1722 1815 1938 1906 1746 1809 1769 1645 1596 1777 1701 1869 1590 1502 1647 1586 1441 1554 1707 1619 1451 786 739 46 447 1007 1265 1919 1643 1700 1568 1383 816 1513
782 797 933 1064 890 1053 1131 1343 1772 1690 1802 1827 1712 1834 1855 1344 1251 1632 1783 2141 2077 1671 1788 1523 1752 1704 1158 1878 1846 1685 903 10 0 153 548 1176 1584 1382 1464 1549 1626 1585 1358
598 831 883 970 988 1154 1604 1418 1299 968 1231 1449 1378 1166 1413 1282 1004 1443 1872 2206 2365 2045 1967 1592 1654 1733 994 933 1514 1611 787 59 94 178 545 1135 1366 1013 1100 1552 1176 1565 1558
421 780 939 936 994 1112 1496 1095 985 879 967 1065 928 793 695 1175 860 755 938 898 676 948 949 1279 1081 1065 1240 1183 1190 1491 1130 182 301 65 218 1123 1839 1424 1008 1113 1590 1495 1676
275 659 889 900 932 827 758 847 741 806 692 687 545 422 418 507 644 666 808 571 534 733 1090 374 984 695 980 1074 1120 1018 588 610 149 0 19 1556 1740 1911 1959 1752 1709 1678 1719
271 408 716 842 836 694 419 450 444 530 636 464 353 236 394 599 529 669 753 610 544 786 1193 852 546 717 973 893 970 940 245 238 63 80 132 1644 1878 1894 1567 1725 1694 1759 1336
283 333 497 721 728 460 378 124 249 295 339 321 244 173 250 672 509 598 649 686 598 750 1013 737 953 973 743 620 588 947 457 114 134 129 539 353 1696 1819 1817 1378 1610 1580 1616
379 379 458 523 572 324 145 2 1 110 316 340 374 372 518 645 632 668 731 707 689 462 833 836 759 315 0 0 0 242 627 618 712 339 570 587 635 1848 1716 2115 1752 1850 1808
406 385 407 544 433 181 74 0 24 47 143 461 776 763 648 784 618 529 705 645 547 704 755 518 485 134 0 0 0 0 0 338 650 621 660 728 705 911 1312 1453 1493 2093 1569
375 335 330 403 343 198 59 5 53 84 237 318 294 655 600 750 727 501 499 418 687 597 547 400 385 0 0 0 0 0 0 0 0 3 406 956 824 994 925 951 1744 1564 988
310 320 220 368 286 206 110 75 163 122 151 72 95 226 553 692 846 628 613 563 880 948 505 357 54 0 0 0 0 0 0 0 4 18 96 293 397 252 897 1138 1392 1381 1308
205 196 105 239 114 136 227 243 352 340 202 290 516 494 511 690 1203 1008 931 799 799 895 753 340 0 0 0 0 0 0 0 0 0 0 100 439 733 795 887 913 953 1075 1177
97 152 154 137 130 44 242 350 439 408 141 342 609 428 503 780 1131 1035 882 652 783 475 290 82 0 0 0 0 0 0 0 0 0 0 6 341 389 449 478 476 650 718 888
120 99 165 152 126 122 146 171 154 158 230 257 358 537 346 702 1040 1419 1055 456 597 495 295 24 0 0 0 0 0 0 0 0 0 0 0 90 196 92 2 233 521 463 358
237 101 93 124 193 152 149 226 376 521 622 438 351 444 699 665 814 1088 787 582 462 214 145 0 0 0 0 0 0 0 0 0 0 1 0 0 0 7 0 0 291 490 78
156 134 51 72 196 152 189 284 303 453 307 163 308 461 374 703 858 925 816 656 448 119 98 0 0 0 0 0 0 0 0 0 0 0 0 0 0 0 0 0 0 402 172
126 156 52 117 204 198 131 229 284 340 139 202 160 369 422 568 715 833 881 748 548 261 59 0 0 0 0 0 0 0 0 0 0 0 0 0 0 0 0 0 0 0 301
CIN
-11 -9 -6 0 -2 -1 0 0 0 0 0 0 0 0 0 0 0 0 0 0 0 0 0 -1 0 0 0 0 -6 -9 -5 -5 -7 -2 0 0 0 0 0 0 0 0 0
-32 -28 -1 -2 0 0 0 0 0 0 0 0 0 0 0 0 0 0 0 0 0 0 0 0 0 0 0 0 0 0 -5 0 -13 -36 0 0 0 0 0 0 0 0 0
-14 -8 -11 -1 0 0 0 0 0 -3 -4 -3 0 0 0 0 0 0 0 0 0 0 0 0 0 0 -1 -1 -4 0 0 0 -16 -24 -2 -23 -2 0 0 0 0 0 0
-22 -23 -14 0 0 0 0 0 0 -3 -3 -2 0 0 0 0 0 0 0 0 0 0 0 0 0 0 0 -2 -7 -5 -3 -7 -5 -12 -22 -7 0 0 0 0 0 0 0
-19 -46 -11 0 0 0 0 0 0 0 0 0 0 0 -1 -2 -1 0 0 0 0 0 0 0 0 0 0 -6 -8 -8 -9 -7 0 -27 -52 -15 -5 0 -1 -19 -1 0 0
-27 -19 -1 0 0 0 0 0 0 0 0 -2 -1 -3 -4 -2 0 0 0 0 -1 -2 0 0 0 0 -4 -10 -13 -16 -11 -4 0 -66 -79 -3 -7 0 -1 0 0 0 0
-10 -15 -1 0 0 0 0 0 0 0 -2 -9 -12 -3 0 0 0 0 0 0 -1 0 0 -1 -3 -3 -5 -11 -12 -6 -10 -27 -88 -81 -50 -11 -13 0 0 0 0 0 0
-14 -9 -4 0 0 0 0 0 -2 -4 -8 -10 -10 -1 0 -2 0 -2 -3 0 0 0 -1 -8 -15 -17 -18 -15 -15 -9 -10 -25 -61 -49 -48 -23 -4 0 0 0 -4 -2 0
-6 -11 -8 -5 -2 0 0 -2 -7 -11 -7 -5 0 -2 -3 -3 -8 -11 -9 -5 -5 -9 -7 -10 -16 -28 -30 -19 -19 -12 -24 -51 -104 -46 -35 -19 -2 0 0 0 -1 -18 0
-5 -11 -10 -12 -15 -18 -12 -4 -11 -9 -9 -3 -2 -14 -5 -2 -10 -14 -11 -18 -10 -19 -18 -18 -24 -40 -42 -34 -21 -31 -55 -66 -237 -99 -26 -12 -3 0 0 0 0 -4 0
-1 -10 -17 -14 -31 -28 -32 -16 -5 -7 -10 -7 -15 -15 -14 -60 -71 -44 -31 -16 -11 -18 -18 -21 -17 -24 -66 -41 -25 -17 -62 -149 0 -190 -92 -17 -4 0 0 0 0 0 0
-16 -3 -27 -27 -27 -19 -3 -18 -37 -62 -52 -44 -53 -76 -61 -80 -115 -66 -42 -22 -15 -21 -29 -34 -25 -28 -100 -135 -101 -47 -116 -233 -224 -186 -109 -35 -5 -9 -1 0 0 -1 0
-82 -16 -13 -31 -32 -25 -9 -58 -77 -93 -92 -85 -94 -120 -144 -104 -144 -155 -145 -148 -173 -117 -120 -96 -114 -111 -98 -110 -112 -99 -106 -187 -158 -235 -167 -58 -3 -3 -9 0 0 -1 0
-135 -59 -38 -41 -42 -66 -87 -94 -111 -111 -131 -133 -148 -168 -175 -182 -179 -179 -165 -187 -179 -183 -132 -201 -130 -143 -112 -111 -111 -124 -156 -142 -212 0 -270 -46 -20 -7 0 0 0 -1 0
-162 -128 -72 -60 -64 -92 -149 -151 -155 -156 -150 -163 -169 -200 -187 -158 -167 -165 -170 -186 -212 -179 -136 -145 -169 -141 -109 -110 -119 -114 -164 -194 -264 -274 -228 -43 -19 -11 -8 -1 0 0 0
-199 -174 -132 -99 -105 -155 -176 -254 -221 -208 -193 -182 -197 -228 -215 -168 -170 -163 -159 -160 -183 -170 -149 -160 -131 -128 -124 -134 -127 -111 -141 -226 -213 -235 -131 -130 -27 -21 -9 -7 -5 0 0
-214 -194 -170 -160 -147 -201 -251 -23 -22 -266 -197 -191 -199 -207 -189 -176 -174 -153 -139 -139 -150 -192 -149 -136 -140 -186 0 0 0 -185 -121 -122 -116 -142 -121 -114 -79 -18 -14 -5 -10 -3 0
-197 -218 -201 -153 -178 -244 -287 0 -192 -289 -241 -186 -155 -166 -184 -168 -186 -180 -144 -141 -160 -150 -144 -154 -145 -182 0 0 0 0 0 -174 -124 -128 -129 -111 -97 -54 -31 -18 -15 -5 -6
-234 -253 -246 -202 -218 -247 -288 -44 -269 -243 -217 -201 -203 -159 -208 -181 -179 -193 -166 -161 -146 -151 -159 -160 -146 0 0 0 0 0 0 0 0 -40 -149 -100 -105 -84 -73 -62 -20 -16 -20
-251 -254 -270 -224 -236 -245 -255 -254 -233 -237 -228 -270 -284 -260 -231 -217 -184 -185 -164 -149 -129 -123 -153 -156 -206 0 0 0 0 0 0 0 -161 -201 -185 -127 -137 -145 -91 -76 -41 -29 -25
-278 -289 -332 -266 -291 -258 -222 -211 -177 -179 -209 -231 -187 -213 -234 -223 -153 -149 -143 -142 -132 -119 -117 -142 0 0 0 0 0 0 0 0 -1 -1 -229 -123 -97 -106 -102 -88 -68 -63 -56
-370 -381 -374 -353 -315 -336 -247 -229 -170 -171 -280 -218 -175 -204 -222 -205 -164 -149 -151 -164 -136 -149 -161 -213 0 0 0 0 0 0 0 0 0 0 -101 -110 -120 -106 -95 -98 -77 -64 -60
-373 -420 -412 -400 -387 -358 -316 -248 -279 -282 -275 -253 -235 -176 -229 -186 -160 -133 -155 -191 -156 -161 -169 -285 0 0 0 0 0 0 0 0 0 0 0 -169 -155 -194 -77 -136 -89 -90 -97
-399 -425 -420 -391 -376 -371 -348 -289 -244 -185 -143 -188 -224 -191 -155 -175 -168 -157 -173 -175 -176 -221 -240 0 0 0 0 0 0 0 0 0 -29 -135 0 0 0 -290 0 0 -119 -93 -154
-400 -455 -502 -465 -392 -397 -381 -322 -302 -229 -252 -328 -283 -221 -201 -171 -161 -160 -169 -179 -186 -268 -282 0 0 0 0 0 0 0 0 0 0 0 0 0 0 0 0 0 0 -106 -132
-404 -417 -504 -508 -475 -444 -433 -371 -344 -296 -340 -312 -337 -230 -220 -200 -174 -177 -161 -176 -207 -268 -337 0 0 0 0 0 0 0 0 0 0 0 0 0 0 0 0 0 0 0 -112
Wind_Speed
3 6 15 13 15 17 18 18 17 17 17 18 17 16 16 14 13 13 11 10 10 10 10 10 10 10 10 11 11 11 10 10 9 9 11 10 10 11 12 12 11 10 12
7 5 14 14 16 17 17 17 16 16 17 17 16 16 15 14 13 11 10 10 9 10 10 10 10 9 9 10 9 8 9 9 8 9 10 9 9 11 12 12 10 10 12
6 6 10 14 17 16 16 15 15 16 16 15 15 15 14 13 12 10 9 8 8 9 9 9 10 8 7 8 8 7 7 6 9 9 8 3 5 11 12 11 12 12 12
8 5 7 15 16 16 15 14 14 15 15 14 14 13 12 11 11 10 8 7 7 8 8 7 7 7 6 6 5 5 5 6 7 9 3 4 9 12 12 11 11 11 11
7 6 9 16 16 16 15 14 14 14 14 12 12 12 11 10 9 8 7 6 6 6 6 5 5 5 5 3 3 2 3 5 7 7 3 3 3 10 11 11 10 10 10
6 6 14 17 17 16 14 14 14 13 13 11 11 10 9 8 7 6 5 5 4 5 5 5 4 4 4 2 0 2 5 6 10 7 4 4 3 11 12 11 11 11 11
6 5 9 15 15 15 14 13 13 12 11 10 9 8 7 6 5 4 3 3 4 5 5 6 6 5 4 2 2 6 6 7 6 6 5 3 2 9 11 11 11 10 9
8 5 6 14 14 14 14 13 12 11 10 9 8 7 6 4 3 2 2 3 4 4 5 5 4 4 3 3 2 4 6 9 7 6 4 3 4 8 9 9 10 9 11
5 6 5 6 11 14 13 12 11 10 9 8 7 6 5 3 2 0 1 3 3 3 3 2 1 1 2 1 4 6 7 10 5 3 5 3 7 10 11 9 9 8 8
4 5 6 5 5 5 5 12 11 9 8 7 5 4 4 3 2 2 2 4 4 3 2 2 0 1 2 3 4 8 8 9 4 4 3 3 5 9 10 10 10 9 8
5 4 5 5 5 5 5 6 10 10 8 7 5 5 3 1 2 3 4 5 4 3 4 2 2 3 4 4 2 7 11 2 3 2 2 5 4 7 8 8 7 10 9
10 6 5 5 5 5 5 3 4 3 2 2 2 2 1 2 3 3 4 6 7 6 6 5 1 4 2 1 1 2 2 4 3 2 2 7 8 8 8 8 7 6 8
11 9 8 6 5 6 4 3 2 2 1 1 2 2 3 2 2 2 2 2 2 4 2 4 3 2 1 1 2 1 2 3 1 1 2 6 9 10 10 8 10 7 9
11 12 10 8 7 5 3 3 3 2 2 2 2 4 2 2 3 3 2 2 2 2 2 2 0 1 1 2 3 3 1 2 2 1 3 8 11 9 9 9 9 10 8
12 12 11 10 8 7 5 3 3 4 3 3 3 4 3 3 2 2 2 2 2 2 1 2 2 1 1 1 3 3 1 2 2 1 1 5 8 9 8 9 10 9 8
14 13 11 11 9 7 7 5 5 3 3 3 4 4 5 3 3 2 2 3 2 3 1 1 1 1 1 2 2 3 2 4 3 2 1 3 10 10 8 7 8 9 10
13 13 13 12 9 8 7 5 4 4 4 5 4 6 6 5 4 3 2 3 3 3 2 1 1 1 2 1 2 2 2 3 3 3 2 3 4 7 8 7 7 9 10
12 13 12 11 11 9 7 5 4 4 4 5 5 4 6 6 5 4 3 3 3 2 2 1 1 1 1 3 1 2 2 3 1 3 5 4 3 3 5 7 8 8 9
13 13 13 12 12 11 8 5 5 5 5 5 3 4 6 7 6 5 3 3 3 2 2 2 0 2 2 2 2 3 3 1 2 0 3 4 4 4 3 5 6 7 7
14 12 12 11 11 11 8 5 3 3 4 3 4 5 6 6 7 6 4 4 3 3 2 2 1 2 2 1 2 3 3 3 3 3 2 2 1 3 4 3 2 2 5
13 12 13 13 12 9 7 6 3 6 4 3 4 5 6 5 6 6 4 4 3 3 2 3 1 1 1 1 2 2 3 5 5 4 3 2 4 3 2 1 1 1 2
17 17 16 16 14 12 9 8 5 6 3 4 3 4 5 6 7 6 6 5 4 3 3 3 3 1 1 1 2 1 2 3 3 5 3 3 4 3 4 4 4 4 3
18 18 18 19 17 14 13 6 3 3 2 2 2 3 4 6 8 7 6 4 4 3 3 3 4 4 2 1 1 3 2 2 0 2 3 2 2 2 2 2 2 3 3
20 17 17 16 16 15 14 11 12 10 9 6 5 5 6 7 7 6 6 6 5 3 4 4 3 3 3 3 1 1 2 2 2 1 1 2 2 1 1 1 0 1 2
21 19 18 17 16 15 15 16 12 11 8 5 4 8 5 5 6 7 7 6 6 4 4 6 5 4 3 3 2 2 1 1 2 2 2 2 2 3 3 2 2 2 3
16 16 15 17 17 16 16 17 16 16 10 7 5 6 5 5 5 7 6 7 6 5 6 6 5 5 4 3 2 2 3 3 3 2 2 1 2 2 2 3 3 3 3
Wind_Direction
142 152 153 132 117 106 103 104 106 105 104 104 105 106 106 110 108 102 103 102 93 88 76 85 100 103 105 101 103 105 111 106 108 113 114 117 118 106 111 104 106 116 107
135 155 151 131 116 109 109 108 107 106 105 106 109 107 111 112 108 107 109 100 98 90 85 78 94 98 107 111 109 110 119 118 118 122 124 129 134 120 110 108 106 105 112
123 142 143 137 122 118 114 112 112 111 112 110 109 112 114 114 115 109 98 95 92 87 84 82 84 94 106 113 121 129 133 133 107 125 119 124 149 130 116 115 109 109 108
118 119 137 135 128 126 121 119 118 117 114 114 117 122 123 123 116 107 101 92 83 80 80 81 87 96 101 111 124 137 142 131 117 122 96 91 123 122 116 115 106 103 108
109 117 140 139 133 131 129 126 126 126 121 124 127 128 126 120 114 111 105 98 89 92 90 87 88 96 98 96 115 147 168 170 148 117 85 98 109 119 116 118 117 111 112
115 114 146 146 139 139 137 137 134 128 130 134 134 128 123 121 120 112 104 93 83 69 75 89 97 94 99 102 110 257 193 196 182 134 110 117 104 128 124 128 119 115 105
125 135 152 148 148 147 145 143 140 135 139 142 138 131 128 131 128 119 101 74 49 53 73 79 84 86 97 110 90 126 122 127 130 130 131 138 159 141 138 125 114 115 119
144 153 155 151 154 156 155 154 149 148 152 151 143 141 138 136 129 117 59 26 27 52 70 75 75 91 108 93 98 109 113 108 112 124 136 150 182 151 135 127 126 122 126
154 142 136 154 170 166 165 162 161 163 164 162 157 155 152 160 157 134 342 351 10 12 30 61 68 32 7 72 121 129 114 125 110 123 141 162 228 148 136 140 135 135 138
149 138 147 165 171 165 175 173 174 175 176 177 171 166 177 196 204 275 323 323 334 337 343 323 17 39 25 344 136 119 128 119 120 130 156 191 183 150 151 159 150 149 132
165 164 151 166 168 170 185 189 187 186 192 194 195 204 215 253 285 312 317 327 323 326 346 37 14 8 29 359 202 137 121 114 107 147 168 202 199 170 163 147 164 167 156
180 182 177 173 170 174 189 197 172 199 204 192 207 256 284 273 284 288 307 319 343 330 357 324 18 45 52 346 316 73 109 143 148 174 187 191 191 179 175 166 170 173 159
178 184 188 185 181 179 191 165 172 183 211 227 222 254 280 283 287 297 294 313 325 329 356 338 43 56 130 273 317 318 114 147 191 190 176 197 193 190 178 186 177 191 178
177 188 188 190 189 187 166 177 177 190 200 223 220 227 229 265 277 279 288 307 315 331 326 340 341 58 49 234 260 291 333 161 161 214 237 195 196 210 199 184 198 184 195
186 191 192 187 189 189 181 176 182 203 206 208 221 236 221 229 283 299 280 284 265 278 268 328 328 95 18 230 197 228 247 254 239 191 195 200 204 213 211 198 196 200 208
191 194 190 193 192 180 193 190 198 199 203 205 223 226 223 222 231 260 250 257 278 263 201 244 287 13 86 357 329 217 222 211 234 222 183 245 244 217 229 210 209 209 215
194 189 192 193 188 188 196 196 196 205 205 217 220 220 217 209 221 234 234 247 244 248 189 231 4 350 42 101 28 334 231 221 191 217 212 241 266 235 222 203 200 207 226
188 186 189 193 190 192 193 192 200 199 216 222 220 198 206 212 206 213 216 238 244 189 184 195 180 199 46 25 99 357 327 278 207 218 207 219 222 234 239 222 209 205 218
188 185 186 188 190 193 200 190 202 202 215 232 236 211 199 205 195 194 199 239 220 218 209 166 86 69 50 30 15 28 7 350 306 217 239 222 216 227 244 250 234 219 223
191 187 184 186 189 189 195 187 196 205 233 225 231 214 198 206 186 181 190 215 193 210 220 78 104 69 70 53 33 36 23 1 355 32 46 24 9 221 239 242 235 240 235
191 188 187 185 193 183 184 188 203 217 216 223 228 216 199 196 177 183 194 213 199 199 178 155 133 138 110 72 76 20 23 35 32 38 46 77 62 73 109 93 80 357 287
192 192 189 194 190 191 192 198 190 185 201 204 219 223 206 191 190 189 193 199 192 153 167 173 147 117 79 61 118 98 53 359 24 22 19 47 64 50 55 45 49 56 67
201 198 195 196 192 192 194 179 100 90 71 143 208 216 216 199 206 197 191 178 186 166 186 178 166 159 158 17 93 129 126 178 359 1 14 24 63 60 45 53 81 90 82
205 202 203 199 196 194 184 186 197 198 203 209 197 199 205 197 208 194 189 178 184 184 186 182 164 150 140 179 100 76 73 131 150 230 356 345 344 290 325 341 21 120 112
201 198 198 194 195 194 192 195 194 201 205 191 176 191 198 204 208 206 198 175 188 186 192 176 161 173 176 159 169 158 116 86 92 131 190 249 300 263 250 239 222 212 193
205 201 200 195 196 189 192 198 197 203 190 186 180 192 196 206 204 215 195 187 192 179 178 189 170 178 179 173 178 179 165 161 172 149 134 206 239 288 267 237 226 219 217